| time (UTC) | temp C | wind direction | speed KPH | gust KPH | rain 1hr cm | rain 24hr cm | rain mn cm | humidity % | barometer mb |
| 20260505123040 | 24 | 293 | 4.8 | 17.7 | 0.00 | 0.00 | 0.00 | 29 | 993.5 |
| 20260505120040 | 23 | 315 | 4.8 | 12.9 | 0.00 | 0.00 | 0.00 | 26 | 993.6 |
| 20260505113040 | 23 | 270 | 4.8 | 11.3 | 0.00 | 0.00 | 0.00 | 27 | 993.8 |
| 20260505100040 | 23 | 248 | 4.8 | 14.5 | 0.00 | 0.00 | 0.00 | 30 | 994.4 |
| 20260505093122 | 22 | 293 | 4.8 | 16.1 | 0.00 | 0.00 | 0.00 | 32 | 994.7 |
| 20260505090042 | 22 | 315 | 6.4 | 16.1 | 0.00 | 0.00 | 0.00 | 35 | 994.9 |
| 20260505083414 | 22 | 315 | 6.4 | 14.5 | 0.00 | 0.00 | 0.00 | 34 | 995.1 |
| 20260505080414 | 21 | 293 | 8.0 | 17.7 | 0.00 | 0.00 | 0.00 | 33 | 995.5 |
| 20260505073042 | 21 | 225 | 4.8 | 14.5 | 0.00 | 0.00 | 0.00 | 37 | 995.6 |
| 20260505070202 | 20 | 293 | 6.4 | 16.1 | 0.00 | 0.00 | 0.00 | 37 | 995.6 |
| 20260505063041 | 20 | 293 | 6.4 | 14.5 | 0.00 | 0.00 | 0.00 | 37 | 995.6 |
| 20260505060042 | 18 | 270 | 6.4 | 14.5 | 0.00 | 0.00 | 0.00 | 40 | 995.7 |
| 20260505053516 | 17 | 270 | 6.4 | 14.5 | 0.00 | 0.00 | 0.00 | 39 | 995.8 |
| 20260505040041 | 13 | 270 | 4.8 | 12.9 | 0.00 | 0.00 | 0.00 | 45 | 996.0 |
| 20260505033041 | 11 | 225 | 3.2 | 11.3 | 0.00 | 0.00 | 0.00 | 49 | 995.9 |
| 20260505030433 | 11 | 248 | 3.2 | 11.3 | 0.00 | 0.00 | 0.00 | 50 | 995.9 |
| 20260505020041 | 9 | 270 | 1.6 | 6.4 | 0.00 | 0.00 | 0.00 | 54 | 995.8 |
| 20260505013041 | 8 | 270 | 1.6 | 6.4 | 0.00 | 0.00 | 0.00 | 56 | 995.6 |
| 20260505003041 | 9 | 270 | 1.6 | 6.4 | 0.00 | 0.00 | 0.00 | 56 | 995.7 |
| 20260504233041 | 10 | 248 | 1.6 | 9.7 | 0.00 | 0.00 | 0.00 | 53 | 995.6 |
| 20260504230041 | 10 | 270 | 3.2 | 9.7 | 0.00 | 0.00 | 0.00 | 51 | 995.6 |
| 20260504223041 | 10 | 270 | 1.6 | 6.4 | 0.00 | 0.00 | 0.00 | 52 | 995.5 |
| 20260504220040 | 11 | 248 | 1.6 | 8.0 | 0.00 | 0.00 | 0.00 | 51 | 995.6 |
| 20260504213101 | 11 | 225 | 3.2 | 8.0 | 0.00 | 0.00 | 0.00 | 49 | 995.4 |
| 20260504203042 | 12 | 225 | 3.2 | 12.9 | 0.00 | 0.00 | 0.00 | 47 | 995.5 |
| 20260504200042 | 12 | 225 | 1.6 | 8.0 | 0.00 | 0.00 | 0.00 | 46 | 995.4 |
| 20260504193042 | 12 | 225 | 1.6 | 4.8 | 0.00 | 0.00 | 0.00 | 46 | 995.4 |
| 20260504183042 | 13 | 225 | 1.6 | 4.8 | 0.00 | 0.00 | 0.00 | 46 | 995.4 |
| 20260504180041 | 13 | 0.0 | 4.8 | 0.00 | 0.00 | 0.00 | 48 | 995.5 | |
| 20260504173141 | 14 | 0.0 | 3.2 | 0.00 | 0.00 | 0.00 | 45 | 995.5 |